Regional Weather Roundup
Issued by NWS

Home | Current Version | Previous Version | Graphics & Text | Print | Product List | Glossary On
Versions: 1 2 3 4 5 6 7 8 9 10 11 12 13 14 15 16 17 18 19 20 21 22 23 24 25 26 27 28 29 30 31 32 33 34 35 36 37 38 39 40 41 42 43 44 45 46 47 48 49 50
000
ASUS43 KIND 292209
RWRIN

WEATHER ROUNDUP FOR INDIANA
NATIONAL WEATHER SERVICE INDIANAPOLIS IN
500 PM EST THU JAN 29 2015

NOTE: "FAIR" INDICATES FEW OR NO CLOUDS BELOW 12,000 FEET WITH NO
SIGNIFICANT WEATHER AND/OR OBSTRUCTIONS TO VISIBILITY.

* - STATION DOES NOT REPORT WEATHER SUCH AS PRECIPITATION OR FOG.

+ - STATION NOT QUALITY CONTROLLED BY THE NATIONAL WEATHER SERVICE.
    USE DATA WITH CAUTION...ESPECIALLY DEWPOINT AND RELATIVE
    HUMIDITY OBSERVATIONS.

INZ001>003-010>013-019-020-292300-
NORTHWEST INDIANA

CITY           SKY/WX    TMP DP  RH WIND       PRES   REMARKS
GARY /AIRPORT/ CLOUDY    36  25  64 NW8G23    30.05R
KNOX *+        CLOUDY    32  23  69 NW16G22   30.02R WCI  21
LA PORTE +     MIX PCPN  34  32  91 NW13G22   30.02R WCI  25
MICHIGAN CITY+ CLOUDY    34  27  75 NW14G20   30.03R WCI  24
MONTICELLO +   CLOUDY    33  29  86 NW14      30.04R WCI  23
RENSSELAER +   CLOUDY    34  32  93 W10       30.07R WCI  26
VALPARAISO     CLOUDY    33  27  78 NW13G23   30.04R WCI  24

$$

LMZ046-743>745-292300-
SOUTHERN LAKE MICHIGAN

STATION/POSITION TIME  TEMP WIND        PRES
                       AIR  DIR/SP/G
                 (UTC) (F)  (DEG/KT/KT) (MB)
MICHIGAN CITY    2200   34  310/ 24/ 27   N/A

$$

INZ004-005-014>016-021>024-292300-
NORTH CENTRAL INDIANA

CITY           SKY/WX    TMP DP  RH WIND       PRES   REMARKS
ELKHART        DRIZZLE   32  28  86 NW12G21   29.98R WCI  23
GOSHEN         FRZ RAIN  33  29  85 NW13      29.95R FOG     WCI  24
LOGANSPORT +   CLOUDY    32  30  93 NW13G22   30.04R FOG     WCI  22
PERU/GRISSOM   FRZ RAIN  32  28  86 NW21      30.01R FOG     WCI  20
ROCHESTER +    CLOUDY    34  32  93 W12       30.01R FOG     WCI  25
SOUTH BEND     CLOUDY    33  29  85 NW16G26   29.99R FOG     WCI  23
WARSAW +       RAIN      32  30  93 NW15G21   29.96R WCI  22

$$

INZ006>009-017-018-025>027-292300-
NORTHEAST INDIANA

CITY           SKY/WX    TMP DP  RH WIND       PRES   REMARKS
ANGOLA *+      CLOUDY    32  28  86 NW15      29.89R WCI  22
AUBURN +       CLOUDY    34  30  86 NW16      29.93R WCI  23
FORT WAYNE     DRIZZLE   34  29  82 NW18G26   29.94R WCI  23
HUNTINGTON +   CLOUDY    32  27  79 NW14G20   29.97R HAZE    WCI  22

$$

INZ028-029-035-036-043>045-051>053-292300-
WEST CENTRAL INDIANA

CITY           SKY/WX    TMP DP  RH WIND       PRES   REMARKS
CRAWFORDSVL +  CLOUDY    31  25  78 NW17G24   30.08R HAZE    WCI  20
GREENCASTLE +  CLOUDY    34  27  75 NW8       30.08R WCI  27
LAFAYETTE      CLOUDY    32  28  85 NW13G22   30.08R FOG     WCI  22
TERRE HAUTE    CLOUDY    35  29  78 NW16G25   30.12R WCI  25

$$

INZ030>032-037>040-046>048-054>057-064-065-292300-
CENTRAL INDIANA

CITY           SKY/WX    TMP DP  RH WIND       PRES   REMARKS
CP ATTERBURY + CLOUDY    36  32  87 NW12G20   30.06R
COLUMBUS       CLOUDY    34  30  86 W12       30.06R FOG     WCI  25
GREENWOOD *+   CLOUDY    34  28  80 NW13G26   30.04  WCI  25
INDIANAPOLIS   DRIZZLE   32  28  85 NW21G30   30.05R FOG     WCI  20
-EAGLE CREEK   CLOUDY    33  29  85 NW17G29   30.04R WCI  22
KOKOMO *+      CLOUDY    34  28  80 NW18G26   30.01R WCI  23
MARION +       CLOUDY    32  30  92 NW15G23   30.00R FOG     WCI  22
MT COMFORT *+  CLOUDY    34  34 100 W17       30.02R WCI  23
SHELBYVILLE    CLOUDY    36  30  79 NW18G24   30.02R HAZE
ZIONSVILLE +   CLOUDY    33  29  86 NW12G18   30.03R FOG     WCI  24

$$

INZ033-034-041-042-049-050-058-059-292300-
EAST CENTRAL INDIANA

CITY           SKY/WX    TMP DP  RH WIND       PRES   REMARKS
MUNCIE         CLOUDY    33  29  85 NW18      29.98R FOG     WCI  22

$$

INZ060-061-067>069-081>083-085>088-292300-
SOUTHWEST INDIANA

CITY           SKY/WX    TMP DP  RH WIND       PRES   REMARKS
EVANSVILLE     CLOUDY    41  31  67 NW17G26   30.18R
HUNTINGBURG *+ CLOUDY    37  30  75 W18G25    30.15R
WASHINGTON +   CLOUDY    37  29  74 NW17G29   30.14R

$$

INZ062-063-066-070>080-084-089>092-292300-
SOUTH CENTRAL AND SOUTHEAST INDIANA

CITY           SKY/WX    TMP DP  RH WIND       PRES   REMARKS
BLOOMINGTON    CLOUDY    35  30  82 NW13G24   30.08R HAZE    WCI  26
NORTH VERNON + CLOUDY    36  36 100 W13       30.05R FOG
SEYMOUR +      CLOUDY    37  30  75 W12G20    30.07R

$$




USA.gov is the U.S. government's official web portal to all federal, state and local government web resources and services.